SIRION PATHFINDER-2

Last updated on Wed Oct 29 2025 00:03:53 GMT+0000 (Coordinated Universal Time)

1 43759U 18099B 25301.60955776 .00007416 00000+0 44035-3 0 9997 2 43759 97.4608 351.1592 0009974 30.0404 330.1397 15.11558671377609
UTC large
Height (km)
Speed (km/s)
/
Latitude / Longitude
Inclination (degrees)
Orbital Period (minutes)
Azimuth
Elevation
Range (km)
Doppler Factor

Next 0 passes for location: London (51.5072 / 0.1276)

Sorry there are no passes over London.